TimeHST,TemperatureF,Dew PointF,Humidity,Sea Level PressureIn,VisibilityMPH,Wind Direction,Wind SpeedMPH,Gust SpeedMPH,PrecipitationIn,Events,Conditions,WindDirDegrees,DateUTC
12:53 AM,72.0,64.0,76,30.04,10.0,Calm,Calm,-,N/A,,Clear,0,2013-08-20 10:53:00
1:53 AM,71.1,64.0,78,30.02,10.0,Calm,Calm,-,N/A,,Clear,0,2013-08-20 11:53:00
2:53 AM,71.1,64.0,78,30.00,10.0,Calm,Calm,-,N/A,,Clear,0,2013-08-20 12:53:00
3:53 AM,71.1,64.9,81,30.00,10.0,Calm,Calm,-,N/A,,Partly Cloudy,0,2013-08-20 13:53:00
4:53 AM,70.0,64.9,84,30.00,10.0,Calm,Calm,-,N/A,,Partly Cloudy,0,2013-08-20 14:53:00
5:53 AM,69.1,64.0,84,30.00,10.0,Calm,Calm,-,N/A,,Clear,0,2013-08-20 15:53:00
6:53 AM,70.0,66.0,87,30.01,10.0,Calm,Calm,-,N/A,,Clear,0,2013-08-20 16:53:00
7:53 AM,78.1,66.9,68,30.02,10.0,NE,3.5,-,N/A,,Clear,40,2013-08-20 17:53:00
8:53 AM,80.1,66.9,64,30.02,10.0,Variable,4.6,-,N/A,,Partly Cloudy,0,2013-08-20 18:53:00
9:53 AM,82.0,68.0,62,30.02,10.0,SE,9.2,-,N/A,,Clear,140,2013-08-20 19:53:00
10:53 AM,82.9,70.0,65,30.02,10.0,SE,10.4,-,N/A,,Clear,140,2013-08-20 20:53:00
11:53 AM,84.9,71.1,63,30.01,10.0,SSE,12.7,-,N/A,,Partly Cloudy,150,2013-08-20 21:53:00
12:53 PM,84.9,70.0,61,30.00,10.0,SE,12.7,-,N/A,,Clear,140,2013-08-20 22:53:00
1:53 PM,84.0,69.1,61,29.98,10.0,SE,15.0,-,N/A,,Clear,140,2013-08-20 23:53:00
2:53 PM,84.0,71.1,65,29.97,10.0,SSE,15.0,19.6,N/A,,Clear,150,2013-08-21 00:53:00
3:53 PM,82.9,70.0,65,29.96,10.0,SE,13.8,-,N/A,,Clear,140,2013-08-21 01:53:00
4:53 PM,82.0,71.1,69,29.95,10.0,SE,10.4,17.3,N/A,,Clear,130,2013-08-21 02:53:00
5:53 PM,80.1,71.1,74,29.96,10.0,SE,6.9,-,N/A,,Clear,130,2013-08-21 03:53:00
6:53 PM,79.0,69.1,72,29.97,10.0,ESE,6.9,-,N/A,,Scattered Clouds,120,2013-08-21 04:53:00
7:53 PM,78.1,64.9,64,29.98,10.0,Calm,Calm,-,N/A,,Scattered Clouds,0,2013-08-21 05:53:00
8:53 PM,77.0,66.9,71,30.00,10.0,Calm,Calm,-,N/A,,Scattered Clouds,0,2013-08-21 06:53:00
9:53 PM,75.9,66.9,74,30.02,10.0,Calm,Calm,-,N/A,,Mostly Cloudy,0,2013-08-21 07:53:00
10:53 PM,73.9,66.9,79,30.02,10.0,ENE,3.5,-,N/A,,Clear,60,2013-08-21 08:53:00
11:53 PM,75.0,66.9,76,30.02,10.0,Calm,Calm,-,N/A,,Mostly Cloudy,0,2013-08-21 09:53:00